User: anonymous   Login
Location: Albany
(35.0000°S, 118.0000°E)
Time: 06:11:45
(UTC-05:00)
Language:

Cosmos 2227 Rocket - Orbit

View from above orbital plane
View from above orbital plane
View from above satellite
View from above satellite

Ground track
Ground track

The orbit data is extracted from the following two-line orbital elements,

1 22285U 92093B   17023.81106513  .00000100  00000-0  76411-4 0  9994
2 22285  71.0222 155.1447 0005273 322.4266  37.6487 14.15008568242117
Epoch (UTC): 23 January 2017 19:27:56
Eccentricity: 0.0005273
inclination: 71.0222°
perigee height: 838 km
apogee height: 846 km
right ascension of ascending node: 155.1447°
argument of perigee: 322.4266°
revolutions per day: 14.15008568
mean anomaly at epoch: 37.6487°
orbit number at epoch: 24211

The dashed part of the orbit path shows where the satellite is in the earth's shadow,  

DLR